{"data":{"norad_id":58773,"epoch":"2026-09-20T04:41:32.443296Z","epoch_age_seconds":178829,"freshness":"STALE","line1":"1 58773U 24011J   26263.19551439 -.00001900  00000+0 -45104-4 0  9993","line2":"2 58773  53.1585 189.2479 0000708  74.8304 285.2777 15.34406505150063","mean_motion":15.34406505,"eccentricity":7.08e-5,"inclination_deg":53.1585,"raan_deg":189.2479,"arg_perigee_deg":74.8304,"mean_anomaly_deg":285.2777,"bstar":-4.5104e-5,"rev_number":15006,"period_min":93.847360220882,"perigee_km":462.1995759244,"apogee_km":463.16823616469,"semimajor_km":6840.8209060445,"source":"CELESTRAK","updated_at":"2026-09-21T09:00:33.958064Z"}}